Regional Weather Roundup
Issued by NWS

Home | Current Version | Previous Version | Graphics & Text | Print | Product List | Glossary On
Versions: 1 2 3 4 5 6 7 8 9 10 11 12 13 14 15 16 17 18 19 20 21 22 23 24 25 26 27 28 29 30 31 32 33 34 35 36 37 38 39 40 41 42 43 44 45 46 47 48 49 50
000
ASUS45 KSLC 021710
RWRUT

UTAH REGIONAL WEATHER ROUNDUP
NATIONAL WEATHER SERVICE SALT LAKE CITY UT
1000 AM MST MON MAR 02 2015

UTZ001>011-023>025-021800-

NORTHERN UTAH

CITY           SKY/WX    TMP DP  RH WIND       PRES   REMARKS
BRIGHAM CITY   CLOUDY    37  25  62 N7        29.77F WCI  31
DUGWAY         LGT SNOW  34  33  96 W3        29.79  FOG
HILL AFB       PTSUNNY   36  28  75 E16G25    29.74F WCI  26
LOGAN          CLOUDY    34  23  64 CALM      29.79F
OGDEN          CLOUDY    38  30  73 VRB3      29.74F
PROVO AIRPORT  NOT AVBL
SALT LAKE CITY CLOUDY    38  34  85 S6        29.76S WCI  33
VERNAL         SNOW      33  31  92 NW3       29.80F VSB 1/2
WENDOVER       CLOUDY    36  27  69 S7        29.78S WCI  30
HEBER CITY     LGT SNOW  32  30  93 CALM      29.76F
WEST JORDAN    CLOUDY    36  36 100 CALM      29.77F

$$

UTZ012>022-026-027-021800-

SOUTHERN/CENTRAL UTAH

CITY           SKY/WX    TMP DP  RH WIND       PRES   REMARKS
BLANDING       CLOUDY    38  36  92 SE8       29.93F WCI  32
BRYCE CANYON   SNOW      30  28  92 SE10      29.77F VSB 1/4 WCI  21
CEDAR CITY     FLURRIES  34  32  92 S9        29.75F WCI  27
DELTA          CLOUDY    33  33 100 S5        29.79S WCI  28
HANKSVILLE       N/A     34  34 100 CALM      29.81
MILFORD        SNOW      33  31  92 S3        29.76F VSB 1/2
MOAB/CYNLANDS  CLOUDY    42  39  89 CALM      29.76F
PRICE          LGT SNOW  34  31  88 CALM      29.77F VSB 3/4
ST GEORGE      CLOUDY    43  37  81 E5        29.83S
KANAB            N/A     32  32 100 CALM      29.87

$$

REGIONAL REPORTS     COLORADO/ARIZONA

CITY           SKY/WX    TMP DP  RH WIND       PRES   REMARKS
CRAIG, CO      CLOUDY    35  32  88 NE5       29.82F WCI  31
GRAND JUNCTION CLOUDY    39  38  96 NE6       29.80F WCI  35
RIFLE          LGT RAIN  34  32  92 CALM      29.83F
MONTROSE       CLOUDY    44  30  57 VRB3      29.85F
CORTEZ         SUNNY     49  35  58 SE22G31   29.89F
PAGE, AZ       LGT RAIN  40  37  89 W6        29.79R FOG
GRAND CANYON   SNOW      32  31  96 SW8       29.85R VSB 1/2 WCI  25
KINGMAN        LGT RAIN  42  39  89 SW7       29.86R
FLAGSTAFF      RAIN      36  34  92 SW23G32   29.82S FOG     WCI  24

$$

REGIONAL REPORTS    NEVADA/IDAHO/WYOMING

CITY           SKY/WX    TMP DP  RH WIND       PRES   REMARKS
LAS VEGAS, NV  PTSUNNY   49  41  74 S17G23    29.78S
ELY            LGT SNOW  27  25  92 N7        29.73F FOG     WCI  19
ELKO           MOSUNNY   31  21  66 CALM      29.76F
POCATELLO, ID  SUNNY     30  17  58 NE3       29.82F
BURLEY         SUNNY     33  16  49 E12       29.79F WCI  24
EVANSTON, WY   LGT SNOW  25  22  88 E6        29.76F VSB 1   WCI  18
ROCK SPRINGS   LGT SNOW  26  23  88 NE5       29.79F VSB 1   WCI  20
KEMMERER       LGT SNOW  27  21  80 N12       29.79F WCI  16

$$


USA.gov is the U.S. government's official web portal to all federal, state and local government web resources and services.